Location: Black Swamp Observatory
(41.3920°N, 84.1250°W)
Time: 01:37:53
(UTC-05:00)

BlueWalker 3 - Pass Details

Date: 06 December 2022
Orbit: 499 x 517 km, 53.2° (Epoch: 02 February)

Event Time Altitude Azimuth Distance (km) Brightness Sun altitude
Rises 17:47:29 0° 309° (NW) 2,629 6.0 -7.6°
Reaches altitude 10° 17:50:22 10° 330° (NNW) 1,737 4.8 -8.1°
Maximum altitude 17:52:56 17° 11° (NNE) 1,370 3.8 -8.6°
Enters shadow 17:55:16 11° 50° (NE) 1,674 4.0 -9.0°
